Tracking 29892 objects as of 21-Nov-2024
HD Live streaming from Space Station
objects crossing your sky now

IGS O-8

Track IGS O-8 now!
10-day predictions
IGS O-8 is classified as:


NORAD ID: 58762
Int'l Code: 2024-010A
Perigee: 487.0 km
Apogee: 493.1 km
Inclination: 97.3 °
Period: 94.3 minutes
Semi major axis: 6861 km
RCS: Unknown
Launch date: January 12, 2024
Source: Japan (JPN)
Launch site: TANEGASHIMA SPACE CENTER (TNSTA)
Your satellite tracking list
Your tracking list is empty




NASA's NSSDC Master Catalog

Two Line Element Set (TLE):
1 58762U 24010A   24241.92405796 0.00000000  00000-0  00000-0 0    03
2 58762  97.3386   2.2958 0004409 294.4615  65.5384 15.27624434    09
Source of the keplerian elements: McCants